[[{"header":{"parameterUnit":"m.s-1","parameterCategory":1,"la1":30.2991,"la2":30.254,"lo1":-89.0895,"lo2":-89.0444,"dy":0.0017,"dx":0.0017,"nx":28,"ny":28,"refTime":"2023-08-06T09:00:00:Z","depth":0,"parameterNumber":2,"parameterNumberName":"U-component_of_WINDS"},"data":[0,0,0,0,0,0,0,0,0,0,0,0,0,0,0,0,0,0,0,0,0,0,0,0,0,0,0,0,0,0,0,0,0,0,0,0,0,0,0,0,0,0,0,0,0,0,0,0,0,0,0,0,0,0,0,0,0,0,4.2112,4.2112,0,4.2195,4.2196,4.2197,4.2182,4.2181,4.2179,4.2178,4.2266,4.227,4.2274,0,0,0,0,0,0,0,0,0,0,0,0,0,4.1942,4.1945,4.2111,4.2113,4.2114,4.2195,4.2196,4.2197,4.2182,4.2181,4.2179,4.2177,4.2265,4.227,4.2274,0,0,0,0,0,0,0,0,0,0,0,0,0,4.202,4.1946,4.2111,4.2116,4.2117,4.2195,4.2196,4.2198,4.2183,4.2181,4.2178,4.2176,4.2264,4.2269,4.2275,4.2354,0,0,4.2292,4.2294,0,0,0,0,0,0,0,0,4.2015,4.2026,4.2114,4.2116,4.2117,4.2176,4.2169,4.225,4.2183,4.2158,4.2178,4.2175,4.2238,4.2246,4.2267,4.2358,4.2362,4.2292,4.2296,4.2298,4.23,0,0,0,0,0,0,0,4.201,4.2022,4.2145,4.2115,4.2117,4.2115,4.2123,4.2184,4.221,4.216,4.2159,4.2169,4.2239,4.2261,4.2269,4.2363,4.2292,4.2297,4.2301,4.2303,4.2526,4.2528,0,0,0,0,0,0,4.2003,4.2018,4.2142,4.2147,4.2059,4.212,4.2129,4.2159,4.2209,4.2214,4.2171,4.2168,4.2253,4.2262,4.2272,4.2368,4.2298,4.2303,4.2307,4.2523,4.2526,4.2529,0,0,0,0,0,0,4.1999,4.2014,4.2139,4.2082,4.2098,4.2125,4.2159,4.2162,4.2185,4.2217,4.2222,4.2189,4.2251,4.2264,4.2334,4.2371,4.2306,4.2311,4.252,4.2524,4.2528,4.2562,0,0,0,0,0,0,4.1994,4.2013,4.2042,4.2083,4.2101,4.2199,4.2161,4.2165,4.2194,4.2191,4.2235,4.2241,4.225,4.2325,4.2339,4.2378,4.2315,4.2517,4.2522,4.2526,4.2558,4.2567,4.2574,0,0,0,0,0,4.1988,4.2049,4.2044,4.2059,4.2138,4.2201,4.2211,4.222,4.2197,4.2228,4.2249,4.2239,4.2365,4.2333,4.2348,4.2389,4.2515,4.252,4.2526,4.2554,4.2565,4.2574,0,0,0,0,0,0,4.2013,4.2054,4.2049,4.2125,4.2159,4.2198,4.2237,4.2231,4.2274,4.2269,4.228,4.229,4.2362,4.2382,4.2346,4.2469,4.2437,4.2446,4.2453,4.2463,4.2471,4.2465,4.232,0,0,0,0,0,4.2027,4.2073,4.2107,4.2171,4.2188,4.221,4.2237,4.2241,4.2278,4.2292,4.2319,4.2355,4.2403,4.2434,4.248,4.2561,4.2571,4.2597,4.2605,4.2611,4.2619,4.2664,4.2676,4.2548,4.2548,4.2548,0,0,4.2057,4.2085,4.2114,4.2176,4.2204,4.2252,4.2222,4.2274,4.2311,4.2301,4.2368,4.2389,4.2431,4.2506,4.2541,4.2526,4.2657,4.2619,4.2624,4.2628,4.2671,4.2683,4.2694,4.2552,4.2551,4.255,0,0,4.2136,4.2161,4.2217,4.2245,4.2287,4.23,4.2314,4.2354,4.2367,4.2435,4.2428,4.2473,4.2554,4.2585,4.2611,4.2702,4.2695,4.2717,4.276,4.2804,4.2814,4.2823,4.2856,4.2867,4.2724,4.2725,4.2725,0,4.2168,4.2239,4.2247,4.23,4.2329,4.2321,4.2379,4.2406,4.246,4.248,4.2462,4.2565,4.2593,4.2676,4.2698,4.272,4.2736,4.2712,4.2811,4.2821,4.2829,4.2861,4.2873,4.2727,4.2727,4.2726,4.2726,0,4.2277,4.2327,4.2367,4.2419,4.2452,4.2508,4.2525,4.2557,4.2559,4.2575,4.2645,4.2678,4.273,4.2751,4.2753,4.2835,4.2824,4.2809,4.2776,4.2844,4.2873,4.2886,4.273,4.2729,4.2729,4.2728,0,0,4.2373,4.2429,4.2444,4.2468,4.2513,4.2553,4.2608,4.2658,4.2686,4.2725,4.2772,4.2842,4.2828,4.2858,4.2864,4.2902,4.2973,4.2882,4.2883,4.2898,4.3066,4.3076,4.309,4.2969,4.2971,4.2973,4.3062,0,4.2457,4.2553,4.2562,4.2649,4.2696,4.269,4.2738,4.2772,4.2789,4.2832,4.2851,4.2901,4.2879,4.2897,4.2934,4.2956,4.3007,4.295,4.3014,4.3016,4.3003,4.3106,4.3118,4.32,4.3074,4.3076,4.3077,0,4.2567,4.2607,4.2699,4.2738,4.2758,4.2801,4.2849,4.289,4.2928,4.2938,4.2971,4.2972,4.303,4.2996,4.3077,4.3038,4.3065,4.308,4.3083,4.309,4.305,4.3115,4.3227,4.3239,4.3096,4.3094,4.3093,0,4.2628,4.2706,4.2771,4.2791,4.2839,4.2869,4.2891,4.2927,4.2957,4.2999,4.3019,4.3067,4.3094,4.3132,4.3147,4.312,4.3227,4.3194,4.3237,4.3237,4.326,4.3258,4.3377,4.3277,4.3277,4.3277,4.3277,0,4.272,4.2777,4.2799,4.2839,4.2902,4.2913,4.2975,4.2995,4.3028,4.3072,4.3071,4.3113,4.3129,4.3174,4.3186,4.3252,4.3264,4.3274,4.3277,4.3274,4.3273,4.3292,4.3286,4.328,4.328,4.3279,4.3278,0,4.28,4.2817,4.2887,4.2926,4.2937,4.2982,4.3016,4.3055,4.3072,4.3128,4.3142,4.3168,4.3221,4.324,4.3304,4.3312,4.3388,4.3386,4.3375,4.3376,4.3418,4.3414,4.3553,4.3572,4.346,4.3461,4.3462,0,4.2857,4.29,4.2944,4.2973,4.2995,4.3043,4.3073,4.3086,4.3118,4.3165,4.3199,4.3251,4.3294,4.3379,4.3405,4.3454,4.3453,4.3499,4.3461,4.3457,4.3454,4.3451,4.3456,4.3506,4.3507,4.3508,4.3509,0,4.2958,4.2964,4.3008,4.3055,4.3091,4.3129,4.3165,4.3189,4.3208,4.3244,4.3298,4.3331,4.3396,4.3449,4.3499,4.3523,4.3519,4.352,4.3533,4.3531,4.3523,4.3528,4.3394,4.3517,4.3516,4.3516,4.3515,4.3515,4.3028,4.3066,4.3103,4.3152,4.318,4.3215,4.3253,4.3275,4.3319,4.3373,4.3378,4.3436,4.3475,4.3542,4.3568,4.3614,4.3602,4.362,4.3625,4.3629,4.3632,4.3516,4.3624,4.3623,4.3623,4.3623,4.3623,0,4.3129,4.3152,4.3197,4.3248,4.3286,4.3279,4.3319,4.3352,4.3403,4.3439,4.348,4.3543,4.3593,4.3623,4.3674,4.3706,4.3706,4.3719,4.3717,4.3722,4.3641,4.3624,4.3718,4.3718,4.3718,4.3718,4.3718,4.3718,4.3186,4.325,4.3261,4.334,4.3363,4.3419,4.3443,4.3475,4.3503,4.3572,4.3614,4.3633,4.3666,4.372,4.3767,4.3774,4.3793,4.3808,4.3814,4.3738,4.3728,4.3719,4.3703,4.3812,4.3812,4.3892,4.3893,4.3893]},{"header":{"parameterUnit":"m.s-1","parameterCategory":1,"la1":30.2991,"la2":30.254,"lo1":-89.0895,"lo2":-89.0444,"dy":0.0017,"dx":0.0017,"nx":28,"ny":28,"refTime":"2023-08-06T09:00:00:Z","depth":0,"parameterNumber":3,"parameterNumberName":"V-component_of_WINDS"},"data":[0,0,0,0,0,0,0,0,0,0,0,0,0,0,0,0,0,0,0,0,0,0,0,0,0,0,0,0,0,0,0,0,0,0,0,0,0,0,0,0,0,0,0,0,0,0,0,0,0,0,0,0,0,0,0,0,0,0,1.1011,1.1011,0,1.0997,1.0997,1.0996,1.098,1.098,1.098,1.098,1.0964,1.0964,1.0964,0,0,0,0,0,0,0,0,0,0,0,0,0,1.1024,1.1024,1.1011,1.1011,1.1011,1.0997,1.0997,1.0996,1.098,1.098,1.098,1.0979,1.0964,1.0964,1.0964,0,0,0,0,0,0,0,0,0,0,0,0,0,1.1015,1.1024,1.1011,1.1001,1.1,1.0997,1.0997,1.0996,1.098,1.098,1.098,1.0979,1.0964,1.0964,1.0964,1.0969,0,0,1.0963,1.0963,0,0,0,0,0,0,0,0,1.1016,1.1015,1.1003,1.1002,1.1001,1.099,1.0996,1.0987,1.098,1.0988,1.098,1.0979,1.0973,1.0972,1.097,1.0968,1.0968,1.0963,1.0963,1.0963,1.0963,0,0,0,0,0,0,0,1.1016,1.1015,1.1006,1.1003,1.1002,1.0997,1.0995,1.0994,1.0983,1.0987,1.0986,1.0985,1.0972,1.097,1.097,1.0968,1.0963,1.0963,1.0963,1.0962,1.0968,1.0969,0,0,0,0,0,0,1.1019,1.1016,1.1006,1.1005,1.1008,1.0997,1.0995,1.0994,1.0983,1.0981,1.0985,1.0984,1.0971,1.097,1.0969,1.0974,1.0963,1.0962,1.0962,1.0968,1.0968,1.0969,0,0,0,0,0,0,1.1019,1.1018,1.1007,1.101,1.1008,1.0997,1.0996,1.0994,1.0992,1.0981,1.0979,1.0985,1.0971,1.0969,1.0969,1.0973,1.0962,1.0962,1.0968,1.0968,1.0968,1.0983,0,0,0,0,0,0,1.1019,1.1018,1.102,1.101,1.1008,1.1007,1.0996,1.0994,1.0991,1.099,1.098,1.0978,1.097,1.0969,1.0969,1.0972,1.0962,1.0967,1.0968,1.0968,1.0982,1.0984,1.0986,0,0,0,0,0,1.102,1.1025,1.1021,1.1019,1.1011,1.1008,1.1006,1.0997,1.0992,1.0993,1.0986,1.0979,1.0973,1.097,1.0969,1.0972,1.0967,1.0968,1.0968,1.0982,1.0984,1.0986,0,0,0,0,0,0,1.1036,1.1024,1.1018,1.1021,1.1015,1.1005,1.1007,1.1,1.0996,1.0995,1.0983,1.0981,1.0982,1.0977,1.0974,1.0976,1.0969,1.0969,1.0979,1.0981,1.0983,1.0984,1.0962,0,0,0,0,0,1.104,1.1039,1.1028,1.1031,1.1028,1.1018,1.1016,1.101,1.1003,1.1001,1.0994,1.0988,1.0985,1.0983,1.0979,1.0982,1.0979,1.0984,1.0985,1.0987,1.0987,1.0987,1.0989,1.0971,1.0971,1.0971,0,0,1.1048,1.1041,1.1041,1.1034,1.1029,1.1027,1.1016,1.1015,1.1014,1.1001,1.1,1.0994,1.0987,1.0988,1.0988,1.0984,1.0992,1.0988,1.0989,1.0989,1.0988,1.099,1.0991,1.0972,1.0971,1.0971,0,0,1.1061,1.1056,1.1058,1.1053,1.1045,1.1038,1.1039,1.1029,1.1025,1.1024,1.1014,1.1012,1.1006,1.1001,1.0998,1.1008,1.1001,1.1008,1.1016,1.1016,1.1018,1.1019,1.1022,1.1023,1.1008,1.1008,1.1008,0,1.1072,1.1069,1.1059,1.1059,1.1055,1.1044,1.1045,1.104,1.1032,1.103,1.1026,1.1018,1.1012,1.1011,1.1014,1.1012,1.1011,1.1008,1.1018,1.1019,1.102,1.1023,1.1024,1.1009,1.1009,1.1009,1.1009,0,1.1082,1.108,1.1083,1.1074,1.1072,1.1072,1.1062,1.106,1.1053,1.1047,1.1045,1.1038,1.1032,1.1031,1.1025,1.1029,1.1027,1.1021,1.1013,1.1023,1.1025,1.1026,1.101,1.101,1.101,1.1009,0,0,1.1105,1.1092,1.1092,1.1088,1.1079,1.1077,1.1076,1.1071,1.1069,1.1063,1.1062,1.1057,1.1051,1.1048,1.1041,1.1041,1.1048,1.1034,1.1034,1.1037,1.1051,1.1055,1.1057,1.1043,1.1044,1.1044,1.1051,0,1.1116,1.1115,1.1105,1.1106,1.1104,1.1092,1.1092,1.1085,1.1079,1.1076,1.1069,1.1065,1.1058,1.1056,1.1055,1.1048,1.1051,1.1047,1.1041,1.1041,1.1043,1.1058,1.1063,1.107,1.1052,1.1053,1.1053,0,1.1129,1.1124,1.1124,1.1114,1.1113,1.1112,1.1106,1.1103,1.1096,1.1091,1.1086,1.1078,1.1076,1.1069,1.1066,1.1063,1.106,1.1056,1.1056,1.1055,1.1047,1.1056,1.1073,1.1074,1.1054,1.1054,1.1054,0,1.1145,1.1138,1.1137,1.1134,1.1122,1.1122,1.1117,1.1109,1.1106,1.1101,1.1098,1.1092,1.1089,1.1085,1.1075,1.1071,1.1072,1.1065,1.1067,1.1068,1.1068,1.1068,1.1083,1.1067,1.1067,1.1067,1.1067,0,1.1158,1.1158,1.1144,1.1143,1.1143,1.1133,1.1133,1.1127,1.112,1.1117,1.1107,1.1105,1.1093,1.1089,1.1081,1.1079,1.1078,1.1073,1.1071,1.1074,1.1074,1.1072,1.107,1.1067,1.1067,1.1067,1.1067,0,1.1175,1.1166,1.1164,1.1153,1.115,1.115,1.114,1.1139,1.1132,1.1129,1.1128,1.1116,1.1111,1.1101,1.1094,1.1088,1.1088,1.1084,1.109,1.1089,1.1092,1.1091,1.1106,1.1106,1.1091,1.1091,1.1091,0,1.1183,1.1183,1.1172,1.117,1.1165,1.1162,1.1158,1.1148,1.1145,1.1136,1.1135,1.1129,1.1124,1.1116,1.1107,1.1101,1.1097,1.1102,1.1096,1.1098,1.1096,1.1096,1.1095,1.1104,1.1104,1.1104,1.1104,0,1.1199,1.1194,1.119,1.1184,1.118,1.1175,1.1169,1.1168,1.1155,1.1152,1.1147,1.1143,1.1135,1.1129,1.1121,1.1115,1.1107,1.1106,1.1106,1.1109,1.1112,1.111,1.1093,1.1106,1.1106,1.1106,1.1106,1.1105,1.1212,1.1211,1.1203,1.1198,1.1192,1.1187,1.1185,1.1177,1.1173,1.1165,1.1159,1.1154,1.1146,1.1135,1.1129,1.1125,1.1121,1.1122,1.1122,1.1122,1.1123,1.1113,1.1124,1.1124,1.1123,1.1123,1.1123,0,1.1226,1.122,1.1216,1.1208,1.1204,1.1197,1.119,1.1187,1.1183,1.1176,1.1171,1.1164,1.1158,1.1148,1.1141,1.114,1.1136,1.1138,1.1138,1.1136,1.1127,1.1127,1.1141,1.1141,1.1141,1.1141,1.1141,1.1141,1.1233,1.1231,1.1225,1.122,1.1214,1.1209,1.1205,1.12,1.1194,1.1188,1.1183,1.1176,1.1168,1.116,1.1154,1.1151,1.1149,1.1152,1.1148,1.1139,1.1137,1.1136,1.1136,1.1152,1.1152,1.1158,1.1158,1.1158]}]]